Notices

What's New in latest Release from April 7th, 2021:

- Updated Glossary, including Speed of Maximum Gust, and Total Hourly Precipitation

- Updated national and regional climate services offices contacts and prices information

- Addition of station inventory lists for 1981-2010, 1971-2000, and 1961-1990 Normals.

If you haven't already, please take our survey and provide feedback about our website: https://eccc.sondage-survey.ca/f/LanguageSelection.aspx?s=442ca660-fcf1-47c0-95a9-59707d6fd709

Hourly Data Report for July 14, 2019

TORONTO CITY
ONTARIO
Current Station Operator: ECCC - MSC

43°40'00.000" N
79°24'00.000" W
112.50 m
6158355
71508
XTO

Download Data

Hourly Data (July 2019)
Hourly Data Report for July 14, 2019
TIME
LST
Temp Definition
°C
Dew Point Definition
°C
Rel Hum Definition
%
Precip. Amount Definition
mm

Wind Dir Definition
10's deg

Wind Spd Definition
km/h
Visibility Definition
km
Stn Press Definition
kPa
Hmdx Definition


Wind Chill Definition


Weather Definition


00:00 21.5 9.9 48 0.0       100.02     LegendNANA
01:00 19.7 7.1 44 0.0       100.07     LegendNANA
02:00 18.4 8.1 51 0.0       100.10     LegendNANA
03:00 17.8 9.2 57 0.0       100.13     LegendNANA
04:00 18.2 10.0 59 0.0       100.16     LegendNANA
05:00 17.9 11.4 66 0.0       100.20     LegendNANA
06:00 18.4 12.4 68 0.0       100.26     LegendNANA
07:00 19.7 13.4 67 0.0       100.34     LegendNANA
08:00 21.2 13.3 61 0.0       100.42     LegendNANA
09:00 22.0 11.7 52 0.0       100.51     LegendNANA
10:00 23.5 12.7 50 0.0       100.51 26   LegendNANA
11:00 24.1 10.9 44 0.0       100.52 26   LegendNANA
12:00 24.6 9.9 39 0.0       100.50 26   LegendNANA
13:00 25.5 7.9 33 0.0       100.48 26   LegendNANA
14:00 26.5 10.7 37 0.0       100.46 28   LegendNANA
15:00 26.8 9.6 34 0.0       100.43 28   LegendNANA
16:00 26.8 11.0 37 0.0       100.42 29   LegendNANA
17:00 25.8 13.1 45 0.0       100.41 29   LegendNANA
18:00 24.4 12.4 47 0.0       100.41 27   LegendNANA
19:00 23.8 12.4 49 0.0       100.45 26   LegendNANA
20:00 22.8 13.0 54 0.0       100.46 26   LegendNANA
21:00 22.3 12.6 54 0.0       100.52 25   LegendNANA
22:00 21.5 11.4 52 0.0       100.52     LegendNANA
23:00 20.2 11.5 58 0.0       100.53     LegendNANA

Notes on Data Quality.

Legend

  • E = Estimated
  • M = Missing
  • NA = Not Available*
  • [empty] = Indicates an unobserved value
Date modified: